Stations météo

Publicité
St-Sauveur, France (7300): Température de l'air & dewpoint: 17.03.2019 23:00:00 - 23.03.2019 23:00:00 (CET)St-Sauveur, France (7300): Vitesse du vent & gusts: 17.03.2019 23:00:00 - 23.03.2019 23:00:00 (CET)St-Sauveur, France (7300): Direction du vent: 17.03.2019 23:00:00 - 23.03.2019 23:00:00 (CET)St-Sauveur, France (7300): reduced air pressure: 17.03.2019 23:00:00 - 23.03.2019 23:00:00 (CET)St-Sauveur, France (7300): visibility: 17.03.2019 23:00:00 - 23.03.2019 23:00:00 (CET)St-Sauveur, France (7300): Quantités de précipitations: 17.03.2019 23:00:00 - 23.03.2019 23:00:00 (CET)
Date & Time tt [°C] td [°C] ff [km/h] ff [knt] fx [km/h] fx [knt] dd ppp [hPa] vv [km] rr [mm]
23.03.2019 23:00:00 11,1 7,2 13 7 22 12 NE 1027,3 - 0,0
23.03.2019 22:00:00 10,5 6,3 13 7 18 10 NE 1027,5 20 0,0
23.03.2019 21:00:00 10,2 6,5 14 7 17 9 NNE 1027,5 - 0,0
23.03.2019 20:00:00 10,6 6,3 10 5 11 6 N 1027,0 - 0,0
23.03.2019 19:00:00 14,6 6,9 4 2 10 5 N 1026,8 18 0,0
23.03.2019 18:00:00 16,4 4,4 0 0 10 5 N 1026,6 - 0,0
23.03.2019 17:00:00 16,1 7,3 5 3 19 10 WSW 1026,9 - 0,0
23.03.2019 16:00:00 16,4 7,6 9 5 20 11 S 1027,2 - 0,0
23.03.2019 15:00:00 17,3 7,6 10 6 18 10 SSE 1027,5 - 0,0
23.03.2019 14:00:00 17,8 7,2 7 4 18 10 S 1028,0 - 0,0
23.03.2019 13:00:00 17,7 6,5 10 6 22 12 ESE 1028,2 18 0,0
23.03.2019 12:00:00 16,8 7,2 11 6 22 12 E 1028,3 - 0,0
23.03.2019 11:00:00 15,5 6,0 14 8 26 14 E 1028,6 - 0,2
23.03.2019 10:00:00 13,6 6,5 10 6 27 14 E 1028,7 10 0,0
23.03.2019 09:00:00 10,7 7,9 11 6 18 10 ENE 1028,7 - 0,0
23.03.2019 08:00:00 6,6 5,4 10 6 17 9 ENE 1028,5 - 0,0
23.03.2019 07:00:00 7,2 4,8 13 7 18 10 ENE 1028,2 15 0,0
23.03.2019 06:00:00 7,4 5,4 15 8 19 11 NNE 1028,1 - 0,0
23.03.2019 05:00:00 7,4 6,2 16 8 19 11 NNE 1028,2 - 0,0
23.03.2019 04:00:00 8,1 7,5 14 8 17 9 NE 1028,4 15 0,0
23.03.2019 03:00:00 8,2 7,8 12 6 14 7 N 1028,7 - 0,0
23.03.2019 02:00:00 7,7 6,9 13 7 18 10 NE 1028,6 - 0,2
23.03.2019 01:00:00 7,8 7,0 14 7 18 10 N 1028,4 15 0,0
23.03.2019 00:00:00 7,8 6,7 15 8 18 10 NNE 1028,7 - 0,0
22.03.2019 23:00:00 7,5 6,6 12 6 14 8 N 1029,0 - 0,0
22.03.2019 22:00:00 8,3 7,5 12 6 14 7 NNE 1028,8 15 0,0
22.03.2019 21:00:00 8,8 8,0 12 6 13 7 N 1028,5 - 0,0
22.03.2019 20:00:00 9,4 8,0 10 6 12 7 NNE 1028,4 - 0,0
22.03.2019 19:00:00 12,3 8,4 3 2 7 4 ESE 1027,8 15 0,0
22.03.2019 18:00:00 14,4 9,8 4 2 11 6 SW 1027,6 - 0,0
22.03.2019 17:00:00 14,2 9,8 6 4 17 9 SW 1027,9 - 0,0
22.03.2019 16:00:00 15,0 9,1 5 3 16 9 S 1028,2 15 0,0
22.03.2019 15:00:00 15,9 5,2 8 4 14 8 SSW 1028,6 - 0,0
22.03.2019 14:00:00 13,8 8,8 8 4 18 10 SSE 1028,8 - 0,0
22.03.2019 13:00:00 13,5 8,5 8 4 19 10 SE 1029,0 15 0,0
22.03.2019 12:00:00 13,6 8,4 12 6 19 10 SE 1029,2 - 0,0
22.03.2019 11:00:00 13,5 8,5 11 6 16 9 SSE 1029,3 - 0,0
22.03.2019 10:00:00 11,8 8,1 10 5 18 10 SE 1028,9 - 0,0
22.03.2019 09:00:00 9,6 9,5 11 6 16 9 ESE 1028,4 - 0,0
22.03.2019 08:00:00 6,0 5,7 11 6 17 9 ESE 1028,2 - 0,0
22.03.2019 07:00:00 5,2 4,6 11 6 16 9 E 1028,0 15 0,0
22.03.2019 06:00:00 5,9 5,2 10 6 17 9 E 1027,7 - 0,0
22.03.2019 05:00:00 7,0 6,1 12 6 18 10 E 1027,8 - 0,0
22.03.2019 04:00:00 8,0 7,1 14 8 21 11 ENE 1028,1 10 0,0
22.03.2019 03:00:00 8,6 7,5 14 7 20 11 NE 1028,7 - 0,0
22.03.2019 02:00:00 9,0 7,6 14 8 21 11 NE 1028,9 - 0,0
22.03.2019 01:00:00 9,4 7,5 14 8 22 12 NNE 1029,4 20 0,0
22.03.2019 00:00:00 10,3 7,7 13 7 24 13 NE 1029,6 - 0,0
21.03.2019 23:00:00 11,1 7,6 16 9 27 14 NE 1029,6 - 0,0
21.03.2019 22:00:00 10,9 7,4 16 9 24 13 NE 1029,9 - 0,0
21.03.2019 21:00:00 10,1 7,3 13 7 18 10 NE 1029,9 - 0,0
21.03.2019 20:00:00 10,2 8,1 10 5 15 8 NNE 1029,8 - 0,0
21.03.2019 19:00:00 12,7 9,0 9 5 18 10 N 1029,6 20 0,0
21.03.2019 18:00:00 14,9 8,8 13 7 27 14 NNE 1029,5 - 0,0
21.03.2019 17:00:00 14,9 9,3 15 8 28 15 N 1029,9 - 0,0
21.03.2019 16:00:00 15,3 8,5 16 9 29 16 N 1030,5 - 0,0
21.03.2019 15:00:00 14,6 8,5 16 8 27 15 N 1031,2 - 0,0
21.03.2019 14:00:00 15,2 8,2 13 7 26 14 NE 1032,2 - 0,0
21.03.2019 13:00:00 14,4 8,6 13 7 25 13 N 1032,9 18 0,0
21.03.2019 12:00:00 13,4 7,4 15 8 24 13 NE 1033,4 - 0,0
21.03.2019 11:00:00 12,9 7,6 13 7 26 14 ENE 1033,6 - 0,0
21.03.2019 10:00:00 11,3 7,2 14 7 25 14 ENE 1033,7 - 0,0
21.03.2019 09:00:00 9,7 7,6 11 6 22 12 ENE 1033,5 - 0,2
21.03.2019 08:00:00 8,0 6,9 11 6 22 12 ENE 1033,2 - 0,0
21.03.2019 07:00:00 7,8 6,9 13 7 22 12 NE 1033,0 15 0,0
21.03.2019 06:00:00 8,0 7,2 14 7 21 11 NE 1032,9 - 0,0
21.03.2019 05:00:00 8,2 7,8 13 7 22 12 NE 1032,9 - 0,0
21.03.2019 04:00:00 8,7 8,4 13 7 19 10 NNE 1033,3 20 0,0
21.03.2019 03:00:00 8,7 8,2 13 7 18 10 NNE 1033,6 - 0,0
21.03.2019 02:00:00 9,2 8,9 14 7 19 11 N 1033,9 - 0,2
21.03.2019 01:00:00 9,2 8,7 14 7 20 11 N 1034,0 20 0,0
21.03.2019 00:00:00 8,9 8,3 13 7 18 10 N 1034,3 - 0,0
20.03.2019 23:00:00 9,1 8,5 10 6 17 9 N 1034,6 - 0,0
20.03.2019 22:00:00 9,4 8,8 11 6 18 10 N 1034,6 - 0,0
20.03.2019 21:00:00 9,7 9,1 12 6 17 9 NNW 1034,8 - 0,0
20.03.2019 20:00:00 9,5 8,4 12 7 18 10 NNW 1034,3 - 0,0
20.03.2019 19:00:00 10,4 8,7 14 7 25 14 NNW 1034,0 20 0,0
20.03.2019 18:00:00 11,1 8,3 14 8 25 14 NNW 1033,8 - 0,0
20.03.2019 17:00:00 11,7 7,2 16 8 24 13 NNW 1033,9 - 0,0
20.03.2019 16:00:00 12,7 5,8 10 5 18 10 N 1034,2 20 0,0
20.03.2019 15:00:00 12,5 5,9 8 4 18 10 N 1034,5 - 0,0
20.03.2019 14:00:00 12,6 7,7 8 4 16 9 N 1035,0 - 0,0
20.03.2019 13:00:00 12,3 7,4 8 4 18 10 WSW 1035,3 20 0,0
20.03.2019 12:00:00 13,1 8,2 8 5 16 9 SSW 1035,5 - 0,0
20.03.2019 11:00:00 13,3 8,6 5 3 13 7 S 1035,4 - 0,0
20.03.2019 10:00:00 10,7 7,6 4 2 10 5 SSE 1035,3 - 0,0
20.03.2019 09:00:00 9,2 9,2 6 4 13 7 SE 1035,0 - 0,0
20.03.2019 08:00:00 5,7 5,6 8 4 11 6 SE 1034,3 - 0,0
20.03.2019 07:00:00 4,7 4,4 6 3 8 4 E 1033,8 20 0,0
20.03.2019 06:00:00 5,1 4,8 4 2 8 4 ESE 1033,3 - 0,0
20.03.2019 05:00:00 5,1 4,7 8 4 10 6 NE 1033,2 - 0,0
20.03.2019 04:00:00 5,6 5,2 9 5 10 5 NNE 1033,2 20 0,0
20.03.2019 03:00:00 5,7 5,3 8 4 10 5 N 1033,2 - 0,0
20.03.2019 02:00:00 5,4 4,7 3 2 9 5 ENE 1033,4 - 0,0
20.03.2019 01:00:00 6,1 4,7 8 4 14 7 N 1033,8 20 0,0
20.03.2019 00:00:00 7,7 6,8 11 6 14 8 NNW 1034,1 - 0,0
19.03.2019 23:00:00 7,0 5,1 8 4 9 5 NW 1033,3 - 0,0
19.03.2019 22:00:00 8,5 6,6 5 3 7 4 NNE 1032,9 - 0,0
19.03.2019 21:00:00 8,9 6,7 4 2 10 5 NNW 1032,6 - 0,0
19.03.2019 20:00:00 9,2 6,5 7 4 12 6 NW 1032,2 - 0,0
19.03.2019 19:00:00 9,9 6,1 7 4 12 6 NW 1031,5 25 0,0
19.03.2019 18:00:00 10,5 6,1 6 4 12 7 N 1030,9 - 0,0
19.03.2019 17:00:00 10,5 6,4 6 4 14 7 WSW 1030,8 - 0,0
19.03.2019 16:00:00 10,5 6,8 7 4 12 7 SW 1030,7 20 0,0
19.03.2019 15:00:00 10,4 7,5 5 3 14 7 WSW 1030,6 - 0,0
19.03.2019 14:00:00 10,6 7,5 5 3 15 8 WSW 1030,9 - 0,0
19.03.2019 13:00:00 10,7 7,0 7 4 14 7 S 1030,8 20 0,0
19.03.2019 12:00:00 10,5 7,7 5 3 15 8 SE 1030,6 - 0,0
19.03.2019 11:00:00 10,3 7,9 7 4 13 7 ESE 1030,1 - 0,0
19.03.2019 10:00:00 9,3 8,2 9 5 14 8 ESE 1029,8 - 0,0
19.03.2019 09:00:00 8,2 7,9 4 2 8 4 E 1029,4 - 0,0
19.03.2019 08:00:00 6,4 5,8 6 3 8 4 NE 1028,9 - 0,0
19.03.2019 07:00:00 6,4 5,7 5 3 10 5 E 1028,2 18 0,0
19.03.2019 06:00:00 6,8 5,4 8 4 13 7 NE 1028,0 - 0,0
19.03.2019 05:00:00 7,4 6,3 6 4 11 6 NNE 1027,8 - 0,0
19.03.2019 04:00:00 7,4 6,2 7 4 15 8 N 1027,6 - 0,0
19.03.2019 03:00:00 6,9 6,0 9 5 15 8 N 1027,6 - 0,0
19.03.2019 02:00:00 7,3 5,4 7 4 18 10 N 1027,7 - 0,0
19.03.2019 01:00:00 8,0 6,5 9 5 21 11 N 1027,7 20 0,0
19.03.2019 00:00:00 7,9 6,4 13 7 24 13 NNW 1027,8 - 0,0
18.03.2019 23:00:00 8,1 6,6 14 7 29 16 NNW 1027,7 - 0,0
18.03.2019 22:00:00 8,2 7,0 16 9 41 22 NNW 1027,6 20 0,4
18.03.2019 21:00:00 8,3 6,9 21 12 38 20 NNW 1027,3 - 0,4
18.03.2019 20:00:00 9,0 5,7 20 11 40 22 NW 1027,0 - 0,0
18.03.2019 19:00:00 9,2 5,6 17 9 38 20 NW 1026,6 20 0,0
18.03.2019 18:00:00 9,2 5,2 22 12 46 25 NW 1026,4 - 0,0
18.03.2019 17:00:00 10,0 5,0 25 13 50 27 NW 1026,2 - 0,0
18.03.2019 16:00:00 10,7 6,1 23 13 42 23 NW 1026,4 20 0,0
18.03.2019 15:00:00 10,9 6,4 19 11 39 21 WNW 1026,6 - 0,0
18.03.2019 14:00:00 11,8 6,7 16 9 39 21 WNW 1026,9 - 0,0
18.03.2019 13:00:00 11,1 6,0 20 11 34 18 WNW 1027,2 20 0,0
18.03.2019 12:00:00 10,5 8,4 9 5 39 21 WNW 1027,4 - 1,0
18.03.2019 11:00:00 11,3 5,6 16 8 30 16 NW 1027,2 - 0,0
18.03.2019 10:00:00 10,7 6,1 17 9 32 17 NW 1027,0 20 0,0
18.03.2019 09:00:00 10,3 5,9 18 10 31 17 NW 1026,3 - 0,0
18.03.2019 08:00:00 8,2 5,3 16 9 26 14 NW 1025,8 - 0,0
18.03.2019 07:00:00 7,9 4,5 15 8 33 18 NW 1025,3 - 0,0
18.03.2019 06:00:00 8,5 5,1 16 9 30 16 NW 1025,1 - 0,0
18.03.2019 05:00:00 8,8 4,6 18 10 29 16 NW 1024,6 - 0,0
18.03.2019 04:00:00 8,0 4,4 15 8 34 18 NW 1024,7 25 0,0
18.03.2019 03:00:00 8,0 3,8 19 10 34 18 NW 1024,5 - 0,0
18.03.2019 02:00:00 8,0 3,5 19 11 42 23 NW 1024,2 - 0,0
18.03.2019 01:00:00 8,2 3,4 21 11 38 21 NW 1024,1 25 0,0
18.03.2019 00:00:00 8,5 2,7 23 12 45 24 NNW 1024,0 - 0,0
17.03.2019 23:00:00 8,5 3,5 19 10 48 26 NNW 1023,5 - 0,0

tt = Température de l'air
td = dewpoint
ff = Vitesse du vent
fx = gusts
dd = Direction du vent
ppp = reduced air pressure
vv = visibility
rr = Quantités de précipitations

stations d'obs. à proximité